Regional Weather Roundup
Issued by NWS Kansas City/Pleasant Hill, MO

Home | Current Version | Previous Version | Graphics & Text | Print | Product List | Glossary Off
Versions: 1 2 3 4 5 6 7 8 9 10 11 12 13 14 15 16 17 18 19 20 21 22 23 24 25 26

000
ASUS43 KEAX 270710
RWREAX

WEATHER ROUNDUP FOR EASTERN KANSAS AND NORTHWEST MISSOURI
NATIONAL WEATHER SERVICE KANSAS CITY/PLEASANT HILL MO
200 AM CDT FRI MAY 27 2016

KSZ040-057-103>105-MOZ028-029-037-043-270800-
...KANSAS CITY METROPOLITAN AREA...

CITY           SKY/WX    TMP DP  RH WIND       PRES   REMARKS
K.C. INTL      CLOUDY    63  60  90 E17G28    29.81F
K.C. DOWNTOWN  CLOUDY    64  62  93 E8        29.82F
LEES SUMMIT    CLOUDY    63  61  93 E10       29.83F
OLATHE - IXD   CLOUDY    63  61  93 E14G20    29.81F
OLATHE - OJC   CLOUDY    62  60  93 E7        29.82F
LAWRENCE       TSTM      63  62  97 E18G25    29.79F

$$

MOZ001>008-011>017-020>025-030>033-038>040-044>046-053-054-270800-
...NORTHERN AND CENTRAL MISSOURI...

CITY           SKY/WX    TMP DP  RH WIND       PRES   REMARKS
ST. JOSEPH     CLOUDY    63  60  90 SE12G20   29.78S
MOSBY          CLOUDY    63  61  94 E7        29.84F
WARRENSBURG    CLOUDY    61  61 100 CALM      29.83F
WHITEMAN AFB   CLOUDY    62  62 100 E5        29.82F
CLINTON        CLOUDY    64  64 100 SE9       29.82F
SEDALIA        CLOUDY    65  63  93 MISG      29.85F
WARSAW         NOT AVBL
CHILLICOTHE      N/A     63  63 100 CALM      29.87S
KIRKSVILLE     MOCLDY    63  61  93 CALM      29.87R

$$

MOZ041-047>049-056>058-063>065-088>090-097-270800-
...EASTERN AND SOUTHERN MISSOURI...

CITY           SKY/WX    TMP DP  RH WIND       PRES   REMARKS
ST. LOUIS INTL LGT RAIN  70  66  87 SW10      29.93S
SPIRIT OF STL  LGT RAIN  69  67  93 S3        29.91F
COLUMBIA       CLOUDY    65  64  97 E7        29.88F
JEFFERSON CITY CLOUDY    65  64  97 E7        29.88F
ROLLA          CLOUDY    66  64  93 SE9       29.89F
SPRINGFIELD    CLOUDY    70  65  84 SE10      29.85F
JOPLIN         CLOUDY    67  61  81 SE6       29.82F
WEST PLAINS    CLOUDY    67  64  90 SE14G20   29.90F

$$

IAZ060-094-KSZ022-034>040-054-083-096-NEZ052-066-093-270800-
...KANSAS...SOUTHEAST NEBRASKA AND IOWA...

CITY           SKY/WX    TMP DP  RH WIND       PRES   REMARKS
TOPEKA         RAIN      62  60  93 NW14G21   29.84F FOG
MANHATTAN      RAIN      60  58  92 NE6       29.85F
EMPORIA        LGT RAIN  58  57  97 NW5       29.86S
CHANUTE        CLOUDY    67  63  87 CALM      29.80F THUNDER
WICHITA        CLOUDY    62  59  90 E16       29.66F
OMAHA          CLOUDY    64  59  83 S9        29.80R
LINCOLN        CLOUDY    62  59  90 S12       29.81R
FALLS CITY     HVY RAIN  62  62 100 S8        29.85R FOG
LAMONI         LGT RAIN  61  60  97 S7        29.83F
DES MOINES     CLOUDY    64  59  83 SW9       29.78F

$$





USA.gov is the U.S. government's official web portal to all federal, state and local government web resources and services.